"Pseudo-MPEC" for 5F14121

Created 2025 Jun 11 18:31:01 UT using Find_Orb

Click here for an explanation of pseudo-MPECs

 
 Astrometry: 
     5F14121*KC2025 06 01.96678 11 52 41.93 -17 06 40.0    ~623l 18.9 GVNEOCPW94
     5F14121 KC2025 06 01.97304 11 52 40.76 -17 08 19.2    ~623l 20.4 GVNEOCPW94
     5F14121 KC2025 06 01.97932 11 52 39.56 -17 09 59.2    ~623l 19.3 GVNEOCPW94
     5F14121 KC2025 06 02.13101 11 52 12.37 -17 50 17.3    ~6242       qNEOCPX10
     5F14121 KC2025 06 02.13633 11 52 11.45 -17 51 41.4    ~6242 18.5 VqNEOCPX10
     5F14121 KC2025 06 02.14177 11 52 10.67 -17 53 08.2    ~6242       qNEOCPX10

Station data:
(W94) AMACS1, San Pedro de Atacama  (S22.953074 W68.179810)  Chile.  Observers
   A. Maury, G. Attard. Measurers A. Maury, G. Attard, D. Parrott. 0.28-m
   f/2.2 Schmidt + CCD.
(X10) OVTLN, San Pedro de Atacama  (S22.953331 W68.179600)  Chile.  Observers
   A. Maury, G. Attard, F. Signoret. Measurers A. Maury, G. Attard, D.
   Parrott. 0.50-m f/4  reflector + CCD.

Orbital elements:  5F14121
   Perihelion 2025 Jun 9.46840 +/- 1.25 TT = 11:14:30 (JD 2460835.96840)
Epoch 2025 Jun  2.0 TT = JDT 2460828.5   Earth MOID: 0.0206   Ma: 0.0969
M 357.56146996 +/- 0.7              (J2000 ecliptic)             AutoNEOCP
n   0.32651285 +/- 0.13             Peri.  195.08030 +/- 3.0
a   2.08866696 +/- 0.556            Node    62.99080 +/- 1.1
e   0.5083434 +/- 0.131             Incl.    5.81129 +/- 2.3
P   3.01859                H 24.05  G  0.15   U 11.4
q 1.02690686 +/- 0.00518    Q 3.15042705 +/- 1.11
From 6 observations 2025 June 1-2 (4.2 hr); mean residual 0".35
Residuals in arcseconds: 
250601 W94  .10+  .40-    250601 W94  .22-  .27+    250602 X10  .69-  .24+    
250601 W94  .10+  .18+    250602 X10  .42+  .52-    250602 X10  .28+  .23+    

Ephemerides (geocentric):
Date (UTC) HH   RA             Dec           delta  r     elong  mag " sig PA
---- --------  ------------   ------------  ------ ------ -----  --- --------
2025 06 11 19  09 19 03.640   -83 34 31.89  .03382 1.0273 109.8 19.2  20d  36
2025 06 11 20  09 12 37.691   -83 47 10.61  .03390 1.0273 109.7 19.2  20d  37
2025 06 11 21  09 05 47.082   -83 59 27.37  .03398 1.0273 109.7 19.2  20d  39
2025 06 11 22  08 58 30.171   -84 11 20.45  .03406 1.0273 109.7 19.2  20d  41
2025 06 11 23  08 50 45.311   -84 22 48.03  .03413 1.0273 109.6 19.2  20d  43
2025 06 12 00  08 42 30.891   -84 33 48.07  .03421 1.0274 109.6 19.2  20d  45
2025 06 12 01  08 33 45.398   -84 44 18.39  .03430 1.0274 109.6 19.2  20d  47
2025 06 12 02  08 24 27.482   -84 54 16.64  .03438 1.0274 109.5 19.2  20d  50
2025 06 12 03  08 14 36.050   -85 03 40.32  .03446 1.0274 109.5 19.2  20d  52
2025 06 12 04  08 04 10.368   -85 12 26.80  .03454 1.0274 109.5 19.2  20d  55
2025 06 12 05  07 53 10.179   -85 20 33.36  .03462 1.0274 109.4 19.2  20d  57
2025 06 12 06  07 41 35.833   -85 27 57.22  .03471 1.0274 109.4 19.2  20d  60
2025 06 12 07  07 29 28.408   -85 34 35.63  .03479 1.0275 109.4 19.2  20d  63
2025 06 12 08  07 16 49.823   -85 40 25.92  .03488 1.0275 109.3 19.2  20d  66
2025 06 12 09  07 03 42.917   -85 45 25.65  .03497 1.0275 109.3 19.2  20d  70
2025 06 12 10  06 50 11.477   -85 49 32.63  .03505 1.0275 109.3 19.3  20d  73
2025 06 12 11  06 36 20.208   -85 52 45.09  .03514 1.0275 109.2 19.3  20d  77
2025 06 12 12  06 22 14.617   -85 55 01.76  .03523 1.0275 109.2 19.3  20d  80
2025 06 12 13  06 08 00.830   -85 56 21.95  .03532 1.0276 109.2 19.3  20d  84
2025 06 12 14  05 53 45.340   -85 56 45.59  .03541 1.0276 109.1 19.3  20d  87
2025 06 12 15  05 39 34.719   -85 56 13.26  .03550 1.0276 109.1 19.3  20d  91
2025 06 12 16  05 25 35.318   -85 54 46.19  .03559 1.0276 109.1 19.3  20d  94
2025 06 12 17  05 11 52.991   -85 52 26.18  .03568 1.0276 109.1 19.3  20d  98
2025 06 12 18  04 58 32.876   -85 49 15.51  .03577 1.0277 109.0 19.3  20d 101
2025 06 12 19  04 45 39.242   -85 45 16.91  .03587 1.0277 109.0 19.3  20d 104
2025 06 12 20  04 33 15.419   -85 40 33.34  .03596 1.0277 109.0 19.3  20d 107
2025 06 12 21  04 21 23.794   -85 35 07.99  .03606 1.0277 108.9 19.3  20d 110
2025 06 12 22  04 10 05.866   -85 29 04.10  .03615 1.0277 108.9 19.3  20d 113
2025 06 12 23  03 59 22.347   -85 22 24.92  .03625 1.0278 108.9 19.3  20d 116
2025 06 13 00  03 49 13.277   -85 15 13.61  .03634 1.0278 108.8 19.3  20d 118
2025 06 13 01  03 39 38.154   -85 07 33.22  .03644 1.0278 108.8 19.4  20d 121
2025 06 13 02  03 30 36.055   -84 59 26.62  .03654 1.0278 108.8 19.4  20d 123
2025 06 13 03  03 22 05.751   -84 50 56.49  .03663 1.0278 108.7 19.4  20d 125
2025 06 13 04  03 14 05.803   -84 42 05.34  .03673 1.0279 108.7 19.4  20d 127
2025 06 13 05  03 06 34.643   -84 32 55.44  .03683 1.0279 108.7 19.4  20d 129
2025 06 13 06  02 59 30.637   -84 23 28.89  .03693 1.0279 108.7 19.4  20d 131
2025 06 13 07  02 52 52.135   -84 13 47.59  .03703 1.0279 108.6 19.4  20d 132
2025 06 13 08  02 46 37.508   -84 03 53.26  .03713 1.0280 108.6 19.4  20d 134
2025 06 13 09  02 40 45.177   -83 53 47.46  .03724 1.0280 108.6 19.4  21d 135
2025 06 13 10  02 35 13.626   -83 43 31.60  .03734 1.0280 108.5 19.4  21d 137
2025 06 13 11  02 30 01.417   -83 33 06.93  .03744 1.0280 108.5 19.4  21d 138
2025 06 13 12  02 25 07.197   -83 22 34.61  .03754 1.0280 108.5 19.4  21d 139
2025 06 13 13  02 20 29.695   -83 11 55.66  .03765 1.0281 108.5 19.4  21d 140
2025 06 13 14  02 16 07.730   -83 01 10.99  .03775 1.0281 108.4 19.4  21d 142
2025 06 13 15  02 12 00.204   -82 50 21.44  .03786 1.0281 108.4 19.4  21d 143
2025 06 13 16  02 08 06.098   -82 39 27.75  .03796 1.0281 108.4 19.5  21d 144
2025 06 13 17  02 04 24.472   -82 28 30.61  .03807 1.0282 108.4 19.5  21d 144
2025 06 13 18  02 00 54.455   -82 17 30.61  .03818 1.0282 108.3 19.5  21d 145